www.pogodaiklimat.ru

Погода и климат >> Архив погоды >> Южная Африка >> Лангебан


ПОГОДА в Лангебане

  • Прогноз погоды в Лангебане
  • Монитор погоды в Лангебане

АРХИВ ПОГОДЫ в Лангебане

Время (UTC), дата Ветер
(напр.,м/с)
 
Видим.   Явления Облачность Т
(С)
Тd
(С)
f
(%)
Тe
(С)
Тes
(С)
Комфортность P
(гПа)
Po
(гПа)
Тmin
(С)
Tmax
(С)
R
(мм)
R24
(мм)
S
(см)
09 10.09 СЗ 1 н/о н/о +22.0 +9.6 45 +24 +24 комфорт 960.9 +11.9 +22.0
15 10.09 ЮЗ 6 н/о н/о +20.9 +10.8 52 +23 +23 комфорт 959.1 +20.8 +25.5
18 10.09 ЮЗ 4 н/о н/о +15.4 +9.8 69 +14 +14 961.3 +15.4 +25.5
21 10.09 СВ 2 н/о н/о +13.4 +9.3 76 +13 +13 964.1 +13.3 +25.5
00 11.09 ЮВ 1 н/о н/о +11.7 +8.3 80 +12 +12 962.4 +11.7 +25.5
03 11.09 З 3 н/о н/о +12.7 +8.8 77 +11 +11 962.5 +11.6 +25.5
06 11.09 штиль 0 н/о н/о +12.1 +7.8 75 +12 +12 962.1 +11.6
09 11.09 В 1 н/о н/о +16.9 +8.1 56 +18 +18 961.8 +11.6 +17.9
12 11.09 ЮЗ 7 н/о н/о +19.2 +9.7 54 +20 +20 960.5 +11.6 +20.7
15 11.09 З 5 н/о н/о +18.7 +8.4 51 +19 +19 960.4 +18.7 +20.7
18 11.09 З 4 н/о н/о +15.5 +9.0 65 +15 +15 961.1 +15.5 +20.7
21 11.09 ЮЗ 3 н/о н/о +13.7 +8.5 71 +13 +13 961.3 +12.8 +20.7
00 12.09 З 3 н/о н/о +13.2 +8.3 72 +12 +12 960.9 +12.8 +20.7
03 12.09 СВ 1 н/о н/о +9.9 +7.1 83 +9 +9 961.9 +9.9 +20.7
06 12.09 СЗ 1 н/о н/о +10.7 +7.4 80 +10 +10 961.6 +9.8 3
09 12.09 СВ 1 н/о н/о +10.4 +8.0 85 +10 +10 963.0 +9.8 +11.1
12 12.09 З 5 н/о н/о +10.6 +6.5 76 +8 +8 962.9 +9.8 +12.3 8
15 12.09 З 6 н/о н/о +10.7 +4.2 64 +8 +8 964.4 +10.0 +12.3
18 12.09 СЗ 3 н/о н/о +9.6 +1.7 58 +8 +8 966.8 +9.4 +12.3 13
21 12.09 СВ 1 н/о н/о +8.0 +4.4 78 +7 +7 967.8 +8.0 +12.3
00 13.09 ЮВ 2 н/о н/о +7.2 +5.6 90 +5 +5 968.5 +7.1 +12.3 16
03 13.09 штиль 0 н/о н/о +7.6 +6.2 91 +7 +7 967.9 +7.1 +12.3
06 13.09 С 1 н/о н/о +8.8 +5.9 82 +8 +8 969.8 +7.1 17
09 13.09 З 4 н/о н/о +11.1 +3.4 59 +9 +9 970.4 +7.1 +11.9
12 13.09 ЮЗ 2 н/о н/о +13.9 +2.5 46 +14 +14 968.5 +7.1 +13.9
15 13.09 З 3 н/о н/о +12.9 +2.8 50 +12 +12 968.7 +12.9 +14.9
18 13.09 ЮВ 1 н/о н/о +9.5 +4.9 73 +9 +9 967.8 +9.5 +14.9
21 13.09 С 1 н/о н/о +7.6 +4.5 81 +7 +7 968.4 +7.6 +14.9
00 14.09 штиль 0 н/о н/о +7.4 +5.0 85 +7 +7 967.7 +6.7 +14.9
03 14.09 штиль 0 н/о н/о +5.9 +4.5 91 +5 +5 966.7 +5.7 +14.9
06 14.09 штиль 0 н/о н/о +7.6 +6.0 90 +7 +7 967.2 +5.7
09 14.09 СЗ 1 н/о н/о +11.7 +5.1 64 +12 +12 966.2 +5.7 +11.7
12 14.09 З 2 н/о н/о +18.1 +2.1 34 +19 +19 964.7 +5.7 +18.7
15 14.09 З 2 н/о н/о +18.8 +5.0 40 +20 +20 963.6 +17.8 +20.1
18 14.09 СЗ 2 н/о н/о +14.7 +4.4 50 +15 +15 964.3 +14.0 +20.1
21 14.09 штиль 0 н/о н/о +9.6 +6.7 82 +9 +9 965.0 +9.2 +20.1
00 15.09 штиль 0 н/о н/о +8.6 +6.2 85 +8 +8 964.7 +8.1 +20.1
03 15.09 В 1 н/о н/о +7.4 +5.8 90 +6 +6 964.2 +6.9 +20.1
06 15.09 ЮВ 1 н/о н/о +7.5 +5.9 90 +6 +6 965.9 +6.4
09 15.09 З 1 н/о н/о +16.1 +5.7 50 +17 +17 965.4 +6.4 +16.1
12 15.09 З 4 н/о н/о +21.3 +6.5 38 +22 +22 комфорт 964.0 +6.4 +23.3
15 15.09 З 5 н/о н/о +20.5 +2.0 29 +21 +21 комфорт 964.2 +19.8 +23.3
18 15.09 штиль 0 н/о н/о +14.1 +5.0 54 +14 +14 965.3 +14.1 +23.3
21 15.09 ЮВ 1 н/о н/о +9.9 +5.8 76 +10 +10 965.3 +9.9 +23.3
00 16.09 штиль 0 н/о н/о +7.8 +5.6 86 +7 +7 965.7 +7.7 +23.3
03 16.09 штиль 0 н/о н/о +6.4 +4.8 89 +5 +5 965.4 +6.4 +23.3
06 16.09 ЮВ 1 н/о н/о +7.5 +6.1 91 +6 +6 966.8 +5.6
09 16.09 СЗ 1 н/о н/о +18.2 +6.5 46 +19 +19 966.6 +5.6 +18.3
12 16.09 З 2 н/о н/о +24.0 +7.4 34 +24 +24 комфорт 964.3 +5.6 +24.1
15 16.09 З 5 н/о н/о +23.1 +6.1 33 +24 +24 комфорт 964.4 +22.5 +24.9
18 16.09 штиль 0 н/о н/о +15.6 +7.2 57 +16 +16 965.5 +15.5 +24.9
21 16.09 ЮВ 1 н/о н/о +11.2 +7.9 80 +11 +11 965.7 +11.2 +24.9
00 17.09 СЗ 1 н/о н/о +9.2 +7.4 88 +9 +9 965.4 +8.9 +24.9
03 17.09 штиль 0 н/о н/о +7.7 +6.4 91 +7 +7 964.7 +7.0 +24.9

 

Местоположение метеостанции Лангебан (Южная Африка): широта -33.08 долгота 18.02 высота над уровнем моря 6 м.

В архиве по умолчанию представлена погода в Лангебане за последнюю неделю. Архивные данные за месяц целиком и за предыдущие месяцы, начиная с января 2011 года, Вы можете получить, выбрав интересующий диапазон дат из раскрывающегося списка и нажав кнопку "Ввод!".


*Определитесь, кто Вы:
робот инопланетянин человек

Внимание! Время в таблицах - всемирное. Для получения местного времени необходимо прибавить поправку, которая равна 2 ч.

Смотрите также архив погоды в соседних городах и на ближайших метеорологических станциях:

Погода в Гилбеке (Южная Африка) (16 км)
Погода в Лангебаанвеге (Южная Африка) (19 км)
Погода на Мысе Колумбайн (Южная Африка) (32 км)
Погода в Малмсбери (Южная Африка) (78 км)
Погода на Роббенэйланде (Южная Африка) (86 км)
Погода в Кейптаун порту (Южная Африка) (99 км)
Погода в Йестерпланте (Южная Африка) (101 км)
Погода в Кейптауне (Южная Африка) (102 км)
Погода в Кейптауне (Южная Африка) (112 км)
Погода в Кейптауне аэропорту АМС (Южная Африка) (112 км)

Пояснения к столбцам:

Ветер - указаны скорость ветра в м/с - средняя за 10 мин, порывы в срок и между сроками (в фигурных скобках) и направление, откуда дует ветер: С - северный, СВ - северо-восточный, В - восточный, ЮВ - юго-восточный, Ю - южный, ЮЗ - юго-западный, З - западный, СЗ - северо-западный.
Видимость - горизонтальная дальность видимости в метрах или километрах. При видимости от 1 до 10 км при отсутствии осадков обычно наблюдается дымка, при ухудшении видимости до 1 км и менее - туман. В сухую погоду видимость может ухудшаться дымом, пылью или мглою.
Явления - указаны атмосферные явления, наблюдавшиеся в срок или в последний час перед сроком; фигурными скобками обозначены явления, наблюдавшиеся между сроками (за 1-3 часа до срока); квадратными скобками обозначены град или гололедные отложения с указанием их диаметра в мм.
Облачность - указаны через наклонную черту общая и нижняя облачность в баллах и высота нижней границы облаков в метрах; квадратными скобками обозначены формы облаков: Ci - перистые, Cs - перисто-слоистые, Cc - перисто-кучевые, Ac - высококучевые, As - высокослоистые, Sc - слоисто-кучевые, Ns - слоисто-дождевые, Cu - кучевые, Cb - кучево-дождевые. Подробнее классификацию облаков см. в Атласе облаков (PDF).
T - Температура воздуха - температура, измеренная на высоте 2 м над землей.
Td - Температура точки росы - температура, при понижении до которой содержащийся в воздухе водяной пар достигнет насыщения.
f - Относительная влажность воздуха - влажноcть воздуха, измеренная на высоте 2 м над землей.
Te - Эффективная температура - температура, которую ощущает одетый по сезону человек в тени. Характеристика душности погоды. При расчете учитывается влияние влажности воздуха и скорости ветра на теплоощущения человека.
Tes - Эффективная температура на солнце - температура, которую ощущает человек, с поправкой на солнечный нагрев. Характеристика знойности погоды. Зависит от высоты солнца над горизонтом, облачности и скорости ветра. Ночью, в пасмурную погоду, а также при ветре 12 м/с и более поправка равна нулю.
P - Атмосферное давление - приведенное к уровню моря атмосферное давление.
Po - Атмосферное давление - измеренное на уровне метеостанции атмосферное давление.
Tmin - Минимальная температура - минимум температуры воздуха на высоте 2 м над землей.
Tmax - Максимальная температура - максимум температуры воздуха на высоте 2 м над землей.
R - Количество осадков - Количество выпавших осадков за период времени, мм. При наведении курсора мыши на число - период времени, за который выпало указанное количество осадков.
R24 - Количество осадков - Количество выпавших осадков за 24 часа, мм.
S - Снежный покров - Высота снежного покрова, см. При наведении курсора мыши на число - состояние снежного покрова и степень покрытия местности в баллах.